Hutchinson, MN

10:45 AM CST on November 18, 2017 (GMT -0600)
Hutchinson Municipal-Butler

Weather History for KHCD - March, 2012

Change the Weather History Date:

Saturday, March 10, 2012

  Actual Average Record
Temperature  
Mean Temperature 47 °F -  
Max Temperature 60 °F 37 °F 61 °F (2015)
Min Temperature 34 °F 19 °F -14 °F (2003)
Degree Days  
Heating Degree Days 18    
Moisture  
Dew Point 33 °F    
Average Humidity 60    
Maximum Humidity 76    
Minimum Humidity 51    
Precipitation  
Precipitation 0.00 in - - ()
Sea Level Pressure  
Sea Level Pressure 29.92 in    
Wind  
Wind Speed 9 mph (SSW)    
Max Wind Speed 16 mph    
Max Gust Speed 21 mph    
Visibility 10 miles    
Events      
Averages and records for this station are not official NWS values.
T = Trace of Precipitation, MM = Missing Value Source: NWS Daily Summary

Daily Weather History Graph

Daily Weather History Graph

Search for Another Location

Airport or City:

Trip Planner

Search our weather history database for the weather conditions in past years. The results will help you decide how hot, cold, wet, or windy it might be!

Date:

Astronomy

Mar. 10, 2012 Rise Set
Actual Time 6:38 AM CST 6:17 PM CST
Civil Twilight 6:09 AM CST 6:46 PM CST
Nautical Twilight 5:35 AM CST 7:20 PM CST
Astronomical Twilight 5:00 AM CST 7:55 PM CST
Moon 9:42 PM CST (3/10) 7:24 AM CST (3/10)
Length of Visible Light 12h 37m
Length of Day
11h 39m
Waning Gibbous, 92% of the Moon is Illuminated
Mar 10
Waning Gibbous
Mar 14
Last Quarter
Mar 22
New
Mar 30
First Quarter
Apr 6
Full

Hourly Weather History & Observations

Time (CST) Temp. Windchill Dew Point Humidity Pressure Visibility Wind Dir Wind Speed Gust Speed Precip Events Conditions
12:13 AM 34.3 °F 29.2 °F 26.1 °F 72% 30.04 in 10.0 mi SSE 5.8 mph - N/A   Clear
12:32 AM 35.6 °F 29.9 °F 26.6 °F 70% 30.02 in 10.0 mi SSE 6.9 mph - N/A   Clear
12:52 AM 35.6 °F 30.7 °F 27.0 °F 71% 30.01 in 10.0 mi SSE 5.8 mph - N/A   Clear
1:12 AM 34.3 °F 28.4 °F 26.6 °F 73% 30.01 in 10.0 mi SSE 6.9 mph - N/A   Clear
1:32 AM 34.3 °F 30.2 °F 27.3 °F 76% 29.99 in 10.0 mi SSE 4.6 mph - N/A   Clear
1:53 AM 35.1 °F 28.6 °F 28.2 °F 76% 29.98 in 10.0 mi SSE 8.1 mph - N/A   Clear
2:12 AM 36.9 °F 29.6 °F 28.9 °F 73% 29.96 in 10.0 mi South 10.4 mph - N/A   Clear
2:33 AM 37.2 °F 30.0 °F 28.4 °F 70% 29.95 in 10.0 mi South 10.4 mph - N/A   Clear
2:52 AM 36.9 °F 29.6 °F 28.9 °F 73% 29.94 in 10.0 mi South 10.4 mph - N/A   Clear
3:13 AM 36.9 °F 29.6 °F 28.6 °F 72% 29.93 in 10.0 mi South 10.4 mph - N/A   Clear
3:32 AM 39.2 °F 32.0 °F 30.0 °F 70% 29.92 in 10.0 mi South 11.5 mph - N/A   Clear
3:52 AM 39.4 °F 32.7 °F 28.6 °F 65% 29.91 in 10.0 mi South 10.4 mph - N/A   Clear
4:32 AM 40.1 °F 34.1 °F 28.0 °F 62% 29.90 in 10.0 mi SSW 9.2 mph - N/A   Clear
4:52 AM 40.6 °F 34.8 °F 27.9 °F 60% 29.89 in 10.0 mi SSW 9.2 mph - N/A   Clear
5:13 AM 40.5 °F 33.6 °F 28.2 °F 62% 29.89 in 10.0 mi SSW 11.5 mph - N/A   Clear
5:32 AM 39.7 °F 33.7 °F 28.0 °F 63% 29.90 in 10.0 mi SSW 9.2 mph 16.1 mph N/A   Clear
5:53 AM 39.6 °F 34.7 °F 27.5 °F 62% 29.90 in 10.0 mi SSW 6.9 mph - N/A   Clear
6:12 AM 39.4 °F 34.5 °F 27.9 °F 63% 29.90 in 10.0 mi SSW 6.9 mph - N/A   Clear
6:33 AM 39.4 °F 33.8 °F 28.2 °F 64% 29.90 in 10.0 mi SSW 8.1 mph - N/A   Clear
6:52 AM 39.4 °F 33.8 °F 28.2 °F 64% 29.91 in 10.0 mi SSW 8.1 mph - N/A   Clear
7:13 AM 39.4 °F 34.5 °F 27.9 °F 63% 29.91 in 10.0 mi SSW 6.9 mph - N/A   Clear
7:32 AM 40.6 °F 36.0 °F 28.2 °F 61% 29.92 in 10.0 mi SW 6.9 mph - N/A   Clear
7:52 AM 41.9 °F 36.9 °F 28.6 °F 59% 29.93 in 10.0 mi SW 8.1 mph - N/A   Clear
8:12 AM 42.3 °F 36.3 °F 28.4 °F 58% 29.93 in 10.0 mi SW 10.4 mph 19.6 mph N/A   Clear
8:32 AM 42.8 °F 35.8 °F 28.8 °F 58% 29.92 in 10.0 mi SSW 13.8 mph - N/A   Clear
8:52 AM 43.2 °F 36.2 °F 28.6 °F 56% 29.92 in 10.0 mi SSW 13.8 mph 19.6 mph N/A   Clear
9:12 AM 44.1 °F 37.7 °F 29.3 °F 56% 29.92 in 10.0 mi SW 12.7 mph - N/A   Clear
9:32 AM 45.5 °F 39.2 °F 30.2 °F 55% 29.92 in 10.0 mi SSW 13.8 mph 18.4 mph N/A   Clear
9:53 AM 46.9 °F - 31.1 °F 54% 29.92 in 10.0 mi SW 12.7 mph - N/A   Clear
10:13 AM 46.9 °F - 31.1 °F 54% 29.92 in 10.0 mi SSW 15.0 mph 18.4 mph N/A   Clear
10:33 AM 49.5 °F - 32.7 °F 53% 29.91 in 10.0 mi SW 11.5 mph - N/A   Clear
10:52 AM 49.5 °F - 33.1 °F 53% 29.91 in 10.0 mi SSW 11.5 mph 19.6 mph N/A   Clear
11:13 AM 49.6 °F - 32.7 °F 52% 29.91 in 10.0 mi SSW 16.1 mph 20.7 mph N/A   Clear
11:32 AM 52.0 °F - 35.4 °F 53% 29.91 in 10.0 mi SSW 9.2 mph 18.4 mph N/A   Clear
11:52 AM 54.5 °F - 36.9 °F 51% 29.91 in 10.0 mi SSW 12.7 mph - N/A   Clear
12:13 PM 54.5 °F - 37.8 °F 53% 29.91 in 10.0 mi SSW 11.5 mph - N/A   Clear
12:32 PM 54.5 °F - 37.9 °F 54% 29.91 in 10.0 mi SSW 10.4 mph - N/A   Clear
12:53 PM 55.0 °F - 38.1 °F 53% 29.90 in 10.0 mi SSW 16.1 mph 19.6 mph N/A   Clear
1:13 PM 57.2 °F - 39.2 °F 51% 29.90 in 10.0 mi SW 11.5 mph - N/A   Clear
1:33 PM 57.2 °F - 40.8 °F 54% 29.90 in 10.0 mi SSW 11.5 mph 17.3 mph N/A   Clear
1:52 PM 57.2 °F - 40.5 °F 54% 29.89 in 10.0 mi SSW 13.8 mph - N/A   Clear
2:12 PM 57.9 °F - 41.4 °F 54% 29.89 in 10.0 mi SSW 10.4 mph 16.1 mph N/A   Clear
2:32 PM 59.5 °F - 42.1 °F 52% 29.89 in 10.0 mi SSW 10.4 mph 16.1 mph N/A   Clear
2:52 PM 59.5 °F - 41.4 °F 51% 29.89 in 10.0 mi SSW 10.4 mph - N/A   Clear
3:12 PM 59.5 °F - 42.6 °F 54% 29.88 in 10.0 mi SSW 11.5 mph - N/A   Clear
3:32 PM 59.5 °F - 42.3 °F 53% 29.88 in 10.0 mi SSW 10.4 mph - N/A   Clear
3:53 PM 60.4 °F - 43.2 °F 53% 29.88 in 10.0 mi South 6.9 mph - N/A   Clear
4:12 PM 59.5 °F - 41.4 °F 51% 29.88 in 10.0 mi SSW 9.2 mph - N/A   Clear
4:33 PM 59.5 °F - 41.9 °F 52% 29.88 in 10.0 mi South 6.9 mph - N/A   Clear
4:52 PM 59.5 °F - 41.9 °F 52% 29.88 in 10.0 mi South 6.9 mph - N/A   Clear
5:13 PM 58.3 °F - 41.7 °F 54% 29.89 in 10.0 mi South 6.9 mph - N/A   Clear
5:32 PM 57.2 °F - 41.2 °F 55% 29.89 in 10.0 mi South 6.9 mph - N/A   Clear
5:52 PM 54.5 °F - 40.3 °F 59% 29.89 in 10.0 mi South 6.9 mph - N/A   Clear
6:13 PM 51.4 °F - 39.9 °F 65% 29.89 in 10.0 mi South 5.8 mph - N/A   Clear
6:32 PM 49.5 °F - 40.1 °F 70% 29.89 in 10.0 mi South 4.6 mph - N/A   Clear
6:52 PM 45.1 °F 43.7 °F 36.9 °F 73% 29.89 in 10.0 mi South 3.5 mph - N/A   Clear
7:12 PM 43.9 °F 42.3 °F 36.0 °F 74% 29.89 in 10.0 mi SSE 3.5 mph - N/A   Clear
7:33 PM 42.8 °F 41.1 °F 35.4 °F 75% 29.89 in 10.0 mi SSE 3.5 mph - N/A   Clear
7:52 PM 44.2 °F 41.8 °F 35.1 °F 70% 29.89 in 10.0 mi South 4.6 mph - N/A   Clear
8:13 PM 43.2 °F 41.5 °F 34.2 °F 71% 29.89 in 10.0 mi South 3.5 mph - N/A   Clear
8:32 PM 43.2 °F 39.7 °F 34.0 °F 70% 29.89 in 10.0 mi South 5.8 mph - N/A   Clear
8:52 PM 43.9 °F 39.3 °F 33.8 °F 68% 29.89 in 10.0 mi South 8.1 mph - N/A   Clear
9:13 PM 45.1 °F 40.8 °F 34.0 °F 65% 29.90 in 10.0 mi South 8.1 mph - N/A   Clear
9:32 PM 43.3 °F 38.6 °F 33.1 °F 67% 29.90 in 10.0 mi South 8.1 mph - N/A   Clear
9:52 PM 42.1 °F 36.6 °F 32.9 °F 70% 29.90 in 10.0 mi South 9.2 mph - N/A   Clear
10:13 PM 41.9 °F 36.3 °F 32.9 °F 70% 29.91 in 10.0 mi South 9.2 mph - N/A   Clear
10:33 PM 41.9 °F 36.9 °F 33.3 °F 71% 29.90 in 10.0 mi South 8.1 mph - N/A   Clear
10:52 PM 41.9 °F 35.9 °F 32.9 °F 70% 29.91 in 10.0 mi South 10.4 mph - N/A   Clear
11:13 PM 43.2 °F 37.4 °F 32.5 °F 66% 29.91 in 10.0 mi South 10.4 mph - N/A   Clear
11:32 PM 43.2 °F 37.9 °F 32.4 °F 66% 29.91 in 10.0 mi South 9.2 mph - N/A   Clear
11:52 PM 43.2 °F 37.9 °F 32.4 °F 66% 29.92 in 10.0 mi South 9.2 mph - N/A   Clear